Flag for U.S.A. Weather past 2 weeks in Charleston, West Virginia, U.S.A.

Now
65 °F

Fog.


Feels Like: 65 °F
Forecast: 64 / 79 °F
Wind: 5 mph from Northeast

Location: Yeager Airport

Current Time: Jul 5, 2015 at 5:58:58 AM

Latest Report: Jul 5, 2015 at 4:54 AM


Visibility: 0 mi

Pressure: 30.04 "Hg

Humidity: 97%

Dew point: 64 °F

Location of CharlestonLocation

Historic Weather in Charleston — Graph

°F

Charleston temperature yesterday

Maximum temperature yesterday: 80 °F (at 3:54 PM)
Minimum temperature yesterday: 68 °F (at 6:54 AM)
Average temperature yesterday: 73 °F

Past Weeks' High & Low Weather Summary

 TemperatureHumidityPressure
High89 °F (Jun 21, 5:54 PM)97% (Jun 20, 4:54 AM)30.14 "Hg (Jun 20, 4:54 AM)
Low55 °F (Jun 29, 5:54 AM)45% (Jun 24, 5:54 PM)29.70 "Hg (Jun 27, 3:54 PM)
Average73 °F78%29.93 "Hg
* Reported Jun 20 3:54 AM — Jul 5 3:54 AM, Charleston, Weather by CustomWeather, © 2015

Note: Actual official high and low records may vary slightly from our data, if they occured in-between our weather recording intervals... More about our weather records

Advertising

Charleston weather history for previous 24 hours

 ConditionsComfort  
Time TempWeatherWind HumidityBarometerVisibility
3:54 AM
Sun, Jul 5
66 °FFog.3 mph96%30.04 "Hg1 mi
2:54 AM66 °FFog.No wind96%30.04 "Hg1 mi
1:54 AM67 °FFog.No wind93%30.04 "Hg1 mi
12:54 AM67 °FFog.No wind97%30.04 "Hg4 mi
11:54 PM
Sat, Jul 4
68 °FFog.No wind93%30.05 "Hg6 mi
10:54 PM69 °FFog.No wind93%30.03 "Hg6 mi
9:54 PM70 °FFog.3 mph93%30.02 "Hg6 mi
8:54 PM74 °FScattered clouds.No wind82%29.99 "Hg5 mi
7:54 PM76 °FScattered clouds.No wind74%29.97 "Hg7 mi
6:54 PM79 °FScattered clouds.5 mph62%29.96 "Hg7 mi
5:54 PM79 °FBroken clouds.3 mph62%29.97 "Hg8 mi
4:54 PM79 °FScattered clouds.6 mph62%29.97 "Hg9 mi
3:54 PM80 °FScattered clouds.No wind60%29.97 "Hg9 mi
2:54 PM78 °FBroken clouds.No wind60%29.97 "Hg8 mi
1:54 PM76 °FPartly sunny.3 mph64%29.98 "Hg8 mi
12:54 PM77 °FBroken clouds.No wind60%29.97 "Hg9 mi
11:54 AM74 °FBroken clouds.3 mph71%29.97 "Hg9 mi
10:54 AM73 °FBroken clouds.5 mph76%29.96 "Hg6 mi
9:54 AM69 °FFog.5 mph87%29.96 "Hg5 mi
8:54 AM68 °FFog.3 mph90%29.94 "Hg4 mi
7:54 AM68 °FLight rain. Fog.5 mph90%29.92 "Hg4 mi
6:54 AM68 °FStrong thunderstorms. Fog.8 mph93%29.90 "Hg4 mi
5:54 AM69 °FLight rain. Low clouds.8 mph90%29.88 "Hg10 mi
Weather by CustomWeather, © 2015

See weather overviewHow to use our weather pages